Content
SEND FEEDBACK

Daily
Averages
Monthly
Summary
United States of America

MCHENRY, MARYLAND


Home > North America > United States > Maryland
Elevation: 82 meters     Latitude: 39 35N     Longitude: 079 22W

WEATHER
 
SELECT A DAY
Number of Records: 202,541;   Date Range: 5/31/06 - 11/26/14
 
SHARE

PRINT THIS DATA

[ ← Previous Day ]
WEATHER ALMANAC - 31 JANUARY, 2013
[ Next Day → ]
[ °F ]   °C
Weather ElementAverageHighLow
Temperature-5.4 °C4 °C (12:45 am)-8 °C (3:45 pm)
Dewpoint-6.8 °C4 °C (12:45 am)-13 °C (4:30 pm)
Humidity90.6 %100 % (12:45 am)68 % (4:30 pm)
Barometer1001 hPa1006.8 hPa (9:45 pm)990.2 hPa (1:10 am)
Wind Speed28.3 km/h46.3 km/h (1:15 pm)
Wind Gust76 km/h (1:50 am)
Weather ElementAverage
Visibility7.6 km
Wind DirectionWSW (263.8 °)

Weather ElementTotal
Precipitation---
Heating Degree Days20.3 (Base 18.3)
Averaged from 63 records on 31 January, 2013
WEATHER CONDITIONS BREAKOUT
WIND DIRECTION BREAKOUT
WEATHER BY HOUR - 31 JANUARY, 2013
[ °F ]   °C
Local TimeTemperatureDewpointHumidityBarometerVisibilityWind DirectionWind SpeedGust SpeedPrecipitationEventsConditions
12:45 AM4 °C4 °C100 %990.9 hPa11.3 kmWSW (250°)29.6 km/h44.4 km/hOvercast
1:10 AM3 °C3 °C100 %990.2 hPa11.3 kmWSW (250°)25.9 km/h42.6 km/hOvercast
1:50 AM2 °C2 °C100 %991.2 hPa6.4 kmWest (260°)27.8 km/h76 km/hOvercast
2:10 AM0 °C0 °C100 %992.2 hPa4.8 kmWest (260°)27.8 km/h57.5 km/hOvercast
2:35 AM0 °C0 °C100 %992.6 hPa4 kmWest (270°)31.5 km/h51.8 km/hOvercast
3:00 AM0 °C0 °C100 %992.6 hPa1.9 kmWest (260°)35.2 km/h51.8 km/hOvercast
3:20 AM0 °C0 °C100 %992.9 hPa1.6 kmWest (270°)27.8 km/h44.4 km/hOvercast
3:45 AM-2 °C-2 °C100 %992.9 hPa1.3 kmWest (280°)31.5 km/h76 km/hOvercast
4:05 AM-2 °C-2 °C100 %993.6 hPa2.4 kmWest (270°)29.6 km/h48.1 km/hOvercast
4:25 AM-2 °C-2 °C100 %993.9 hPa2.9 kmWest (270°)42.6 km/h62.9 km/hOvercast
4:45 AM-2 °C-2 °C100 %994.6 hPa11.3 kmWest (260°)29.6 km/h55.5 km/hOvercast
5:10 AM-3 °C-3 °C100 %995.3 hPa8 kmWest (270°)29.6 km/h51.8 km/hOvercast
5:30 AM-3 °C-3 °C100 %995.6 hPa8 kmWest (260°)27.8 km/h55.5 km/hOvercast
5:50 AM-3 °C-4 °C93 %995.9 hPa11.3 kmWest (260°)33.3 km/h53.8 km/hOvercast
6:10 AM-4 °C-4 °C100 %996.3 hPa8 kmWSW (250°)33.3 km/h51.8 km/hOvercast
6:55 AM-4 °C-6 °C86 %997.6 hPa11.3 kmWest (270°)24.1 km/h53.8 km/hOvercast
7:35 AM-5 °C-5 °C100 %998.3 hPa4.8 kmWest (270°)24.1 km/h46.3 km/hOvercast
8:00 AM-5 °C-5 °C100 %998.6 hPa0.3 kmWest (270°)24.1 km/h50.1 km/hFogLight Freezing Fog
8:20 AM-5 °C-6 °C93 %999 hPa4 kmWest (270°)29.6 km/h55.5 km/hOvercast
8:40 AM-5 °C-6 °C93 %999 hPa11.3 kmWest (270°)20.4 km/h42.6 km/hOvercast
9:00 AM-5 °C-6 °C93 %999.3 hPa4.8 kmWest (270°)29.6 km/h59.2 km/hOvercast
9:25 AM-6 °C-6 °C100 %999.7 hPa1.3 kmWest (270°)31.5 km/h57.5 km/hOvercast
9:45 AM-5 °C-6 °C93 %999.3 hPa8 kmWest (270°)29.6 km/h57.5 km/hOvercast
10:05 AM-6 °C-6 °C100 %999.7 hPa1.9 kmWest (280°)27.8 km/h59.2 km/hOvercast
10:25 AM-6 °C-6 °C100 %1000.3 hPa4 kmWest (270°)25.9 km/h44.4 km/hOvercast
10:50 AM-5 °C-7 °C86 %1000.7 hPa16.1 kmWest (260°)37 km/h59.2 km/hOvercast
11:10 AM-6 °C-8 °C86 %1001.4 hPa6.4 kmWest (260°)42.6 km/h57.5 km/hOvercast
11:30 AM-6 °C-8 °C86 %1001.7 hPa6.4 kmWest (270°)25.9 km/h51.8 km/hOvercast
11:50 AM-6 °C-9 °C80 %1001.7 hPa4.8 kmWest (270°)29.6 km/h61.2 km/hHaze
12:15 PM-7 °C-7 °C100 %1002 hPa0.3 kmWest (260°)27.8 km/h48.1 km/hFogLight Freezing Fog
12:35 PM-6 °C-8 °C86 %1001.7 hPa4.8 kmWest (270°)35.2 km/h51.8 km/hOvercast
12:55 PM-6 °C-7 °C93 %1001.4 hPa0.8 kmWest (260°)37 km/h57.5 km/hFogLight Freezing Fog
1:15 PM-6 °C-6 °C100 %1001.7 hPa0.8 kmWest (280°)46.3 km/h66.6 km/hFogLight Freezing Fog
1:40 PM-7 °C-7 °C100 %1001.7 hPa0.8 kmWest (280°)38.9 km/h61.2 km/hFogLight Freezing Fog
2:00 PM-6 °C-8 °C86 %1002 hPa2.9 kmWest (260°)27.8 km/h61.2 km/hOvercast
2:20 PM-6 °C-8 °C86 %1002 hPa4.8 kmWest (270°)31.5 km/h48.1 km/hHaze
2:40 PM-6 °C-8 °C86 %1002.4 hPa3.2 kmWest (270°)42.6 km/h61.2 km/hOvercast
3:05 PM-6 °C-7 °C93 %1003 hPa0.8 kmWest (270°)37 km/h57.5 km/hFogLight Freezing Fog
3:25 PM-7 °C-9 °C86 %1003.4 hPa1.9 kmWest (280°)27.8 km/h57.5 km/hOvercast
3:45 PM-8 °C-8 °C100 %1004.1 hPa0.8 kmWest (270°)24.1 km/h55.5 km/hFogLight Freezing Fog
4:05 PM-8 °C-11 °C79 %1004.7 hPa8 kmWest (270°)38.9 km/h57.5 km/hHaze
4:30 PM-8 °C-13 °C68 %1005.1 hPa16.1 kmWest (270°)25.9 km/h44.4 km/hOvercast
4:50 PM-8 °C-13 °C68 %1005.4 hPa16.1 kmWest (270°)20.4 km/h42.6 km/hOvercast
5:10 PM-8 °C-13 °C68 %1005.4 hPa16.1 kmWest (280°)20.4 km/h38.9 km/hOvercast
5:30 PM-8 °C-11 °C79 %1005.8 hPa6.4 kmWest (260°)20.4 km/h46.3 km/hHaze
5:55 PM-8 °C-12 °C73 %1006.1 hPa11.3 kmWest (260°)20.4 km/h38.9 km/hMostly Cloudy
6:15 PM-8 °C-12 °C73 %1006.1 hPa16.1 kmWest (260°)18.5 km/h37 km/hMostly Cloudy
6:35 PM-8 °C-12 °C73 %1006.1 hPa16.1 kmWest (260°)22.2 km/h31.5 km/hScattered Clouds
6:55 PM-8 °C-13 °C68 %1006.1 hPa16.1 kmWSW (250°)22.2 km/h38.9 km/hScattered Clouds
7:20 PM-8 °C-12 °C73 %1006.1 hPa16.1 kmWSW (250°)20.4 km/h44.4 km/hClear
7:40 PM-8 °C-12 °C73 %1006.1 hPa16.1 kmWSW (250°)27.8 km/h40.7 km/hClear
8:00 PM-8 °C-11 °C79 %1006.1 hPa16.1 kmWSW (250°)24.1 km/h40.7 km/hClear
8:20 PM-8 °C-11 °C79 %1006.1 hPa16.1 kmWest (260°)20.4 km/h38.9 km/hScattered Clouds
8:45 PM-8 °C-11 °C79 %1006.1 hPa16.1 kmWest (260°)20.4 km/h37 km/hOvercast
9:05 PM-8 °C-10 °C86 %1006.4 hPa11.3 kmWSW (250°)27.8 km/h40.7 km/hOvercast
9:25 PM-8 °C-10 °C86 %1006.4 hPa16.1 kmWSW (250°)24.1 km/h46.3 km/hMostly Cloudy
9:45 PM-8 °C-8 °C100 %1006.8 hPa16.1 kmWSW (250°)20.4 km/h37 km/hMostly Cloudy
10:10 PM-8 °C-8 °C100 %1006.4 hPa2.9 kmWSW (250°)18.5 km/h29.6 km/hOvercast
10:30 PM-8 °C-8 °C100 %1006.1 hPa1.6 kmWSW (250°)22.2 km/h38.9 km/hOvercast
10:50 PM-8 °C-8 °C100 %1006.1 hPa2.4 kmWSW (250°)31.5 km/h51.8 km/hOvercast
11:10 PM-8 °C-8 °C100 %1006.1 hPa11.3 kmWest (260°)27.8 km/h35.2 km/hOvercast
11:35 PM-8 °C-8 °C100 %1005.8 hPa4 kmWest (260°)22.2 km/h40.7 km/hOvercast
11:55 PM-8 °C-8 °C100 %1005.4 hPa3.2 kmWest (270°)20.4 km/h33.3 km/hOvercast
Hourly data recorded from K2G4, located 0 kilometers away from McHenry, Maryland







STORIES FROM OUR PARTNERS